EW7554 Weather Reports


time (UTC)temp
C
wind
direction
speed
KPH
gust
KPH
rain 1hr
cm
rain 24hr
cm
rain mn
cm
humidity
%
barometer
mb
20260508141557 12 217 1.6 12.9 0.00 0.00 0.00 42 1008.6
20260508140104 11 198 4.8 14.5 0.00 0.00 0.00 41 1008.7
20260508134600 11 203 9.7 16.1 0.00 0.00 0.00 39 1008.8
20260508133051 11 196 9.7 20.9 0.00 0.00 0.00 39 1008.8
20260508131547 11 192 8.0 20.9 0.00 0.00 0.00 41 1009.0
20260508130044 10 200 9.7 17.7 0.00 0.00 0.00 41 1008.9
20260508124540 8 198 8.0 16.1 0.00 0.00 0.00 43 1009.0
20260508123037 8 215 4.8 12.9 0.00 0.00 0.00 45 1009.0
20260508121537 7 212 4.8 8.0 0.00 0.00 0.00 47 1009.1
20260508120038 7 207 3.2 11.3 0.00 0.00 0.00 48 1008.9
20260508114527 6 196 4.8 9.7 0.00 0.00 0.00 48 1008.9
20260508113022 6 217 4.8 9.7 0.00 0.00 0.00 48 1008.9
20260508111527 6 200 6.4 11.3 0.00 0.00 0.00 48 1009.0
20260508110020 6 199 4.8 11.3 0.00 0.00 0.00 48 1008.9
20260508104514 6 209 4.8 8.0 0.00 0.00 0.00 48 1008.9
20260508103022 6 207 4.8 8.0 0.00 0.00 0.00 48 1008.9
20260508101511 6 217 4.8 9.7 0.00 0.00 0.00 48 1009.0
20260508100009 6 206 3.2 8.0 0.00 0.00 0.00 48 1009.1
20260508094507 6 224 4.8 9.7 0.00 0.00 0.00 47 1009.1
20260508093004 7 228 3.2 8.0 0.00 0.00 0.00 46 1009.2
20260508091503 7 215 4.8 9.7 0.00 0.00 0.00 45 1009.2
20260508090004 7 209 4.8 9.7 0.00 0.00 0.00 46 1009.3
20260508084501 7 202 4.8 9.7 0.00 0.00 0.00 47 1009.2
20260508083109 7 204 6.4 9.7 0.00 0.00 0.00 47 1009.2
20260508081605 7 208 3.2 8.0 0.00 0.00 0.00 47 1009.3
20260508074603 7 202 3.2 8.0 0.00 0.00 0.00 47 1009.6
20260508073053 7 202 3.2 8.0 0.00 0.00 0.00 48 1009.6
20260508071550 7 197 4.8 8.0 0.00 0.00 0.00 48 1009.7
20260508070048 7 190 3.2 6.4 0.00 0.00 0.00 49 1009.8
20260508064546 7 188 3.2 6.4 0.00 0.00 0.00 48 1009.8
20260508063045 7 192 3.2 6.4 0.00 0.00 0.00 48 1010.0
20260508061542 8 180 4.8 6.4 0.00 0.00 0.00 47 1010.1
20260508060042 8 171 4.8 14.5 0.00 0.00 0.00 48 1010.2
20260508054542 7 197 4.8 9.7 0.00 0.00 0.00 51 1010.3
20260508053033 8 202 4.8 9.7 0.00 0.00 0.00 50 1010.4
20260508051535 8 181 3.2 4.8 0.00 0.00 0.00 50 1010.4
20260508050034 8 178 3.2 4.8 0.00 0.00 0.00 49 1010.4
20260508044530 8 182 4.8 6.4 0.00 0.00 0.00 48 1010.6
20260508043028 9 180 3.2 8.0 0.00 0.00 0.00 46 1010.6
20260508041527 9 181 1.6 6.4 0.00 0.00 0.00 45 1010.7
20260508040029 10 186 3.2 6.4 0.00 0.00 0.00 43 1010.8
20260508034532 10 188 4.8 6.4 0.00 0.00 0.00 41 1010.9
20260508033027 10 190 1.6 4.8 0.00 0.00 0.00 41 1011.0
20260508031527 10 190 1.6 4.8 0.00 0.00 0.00 40 1011.0
20260508030026 11 211 3.2 6.4 0.00 0.00 0.00 36 1011.0
20260508024527 11 284 1.6 3.2 0.00 0.00 0.00 35 1011.0
20260508023024 11 284 0.0 3.2 0.00 0.00 0.00 34 1011.0
20260508021527 12 284 0.0 3.2 0.00 0.00 0.00 33 1011.0
20260508020034 12 284 0.0 3.2 0.00 0.00 0.00 32 1010.8
20260508014524 12 284 1.6 4.8 0.00 0.00 0.00 31 1010.7
20260508013022 13 284 1.6 6.4 0.00 0.00 0.00 30 1010.6
20260508011525 13 290 4.8 12.9 0.00 0.00 0.00 29 1010.5
20260508010022 13 277 3.2 12.9 0.00 0.00 0.00 28 1010.4
20260508004522 14 292 3.2 16.1 0.00 0.00 0.00 27 1010.4
20260508003021 14 295 9.7 17.7 0.00 0.00 0.00 26 1010.5